Regional Weather Roundup
Issued by NWS Charleston, WV

Home | Current Version | Previous Version | Graphics & Text | Print | Product List | Glossary On
Versions: 1 2 3 4 5 6 7 8 9 10 11 12 13 14 15 16 17 18 19 20 21 22 23 24 25 26 27 28 29 30 31 32 33 34 35 36 37 38 39 40 41 42 43 44 45 46 47 48 49 50
000
ASUS41 KRLX 050810
RWRRLX
West Virginia Regional Weather Roundup
National Weather Service Charleston WV
400 AM EDT SAT SEP 05 2015

Note: "fair" indicates few or no clouds below 12,000 feet with no
significant weather and/or obstructions to visibility.

WVZ003-050900-
Northern Panhandle of West Virginia

CITY           SKY/WX    TMP DP  RH WIND       PRES   REMARKS
WHEELING       CLEAR     63  61  93 E7        30.14R
$$

WVZ009-050900-
Northwest West Virginia

CITY           SKY/WX    TMP DP  RH WIND       PRES   REMARKS
PARKERSBURG    CLOUDY    65  64  97 SE3       30.14S FOG
$$

WVZ006-050900-
Western West Virginia

CITY           SKY/WX    TMP DP  RH WIND       PRES   REMARKS
HUNTINGTON     PTCLDY    67  66  97 E5        30.10S
$$

WVZ015-050900-
West Central West Virginia

CITY           SKY/WX    TMP DP  RH WIND       PRES   REMARKS
CHARLESTON     PTCLDY    69  67  93 CALM      30.12S
$$

WVZ022-031-050900-
North Central West Virginia

CITY           SKY/WX    TMP DP  RH WIND       PRES   REMARKS
CLARKSBURG     MOCLDY    65  64  97 CALM      30.14S
MORGANTOWN     PTCLDY    70  63  78 CALM      30.15S
$$

WVZ025-035-042-045-050900-
Southern West Virginia

CITY           SKY/WX    TMP DP  RH WIND       PRES   REMARKS
BECKLEY        PTCLDY    62  60  93 S3        30.20S FOG
LOGAN            N/A     68  61  77 E3        30.14F
BLUEFIELD      MOCLDY    68  62  81 SE5       30.22R
LEWISBURG      FOG       64  62  94 CALM      30.21S VSB 1/4
$$

WVZ047-050900-
Northern Mountains of West Virginia

CITY           SKY/WX    TMP DP  RH WIND       PRES   REMARKS
ELKINS         FOG       63  61  93 CALM      30.20R VSB 1/4
$$

WVZ052-050900-
Eastern Panhandle of West Virginia

CITY           SKY/WX    TMP DP  RH WIND       PRES   REMARKS
MARTINSBURG    CLOUDY    71  69  93 CALM      30.18R FOG
PETERSBURG     CLOUDY    67  67  99 CALM      30.19R FOG
$$



USA.gov is the U.S. government's official web portal to all federal, state and local government web resources and services.